Regional Weather Roundup
Issued by NWS

Home | Current Version | Previous Version | Graphics & Text | Print | Product List | Glossary On
Versions: 1 2 3 4 5 6 7 8 9 10 11 12 13 14 15 16 17 18 19 20 21 22 23 24 25 26 27 28 29 30 31 32 33 34 35 36 37 38 39 40 41 42 43 44 45 46 47 48 49 50
000
ASUS43 KDMX 140708
RWRIA

WEATHER ROUNDUP FOR IOWA
NATIONAL WEATHER SERVICE DES MOINES IA
100 AM CST SUN FEB 14 2016

NOTE: "FAIR" INDICATES FEW OR NO CLOUDS BELOW 12,000 FEET WITH NO
SIGNIFICANT WEATHER AND/OR OBSTRUCTIONS TO VISIBILITY.

* - THESE STATIONS ARE NOT NWS STATIONS...THUS NOT UNDER NWS
QUALITY CONTROL.  THEY ALSO DO NOT REPORT WEATHER SUCH
AS PRECIPITATION OR FOG.

IAZ001>003-012>014-020>022-031>034-043>046-140800-
   NORTHWEST IOWA

CITY           SKY/WX    TMP DP  RH WIND       PRES   REMARKS
CARROLL *      CLOUDY    14  10  85 SE18      30.16S WCI  -3
CHEROKEE *     CLOUDY    12  10  92 SE12      30.12F WCI  -2
DENISON *      CLOUDY    16   9  73 SE13      30.11F WCI   2
LE MARS *      CLOUDY    16  12  86 SE15G23   30.07F WCI   1
ORANGE CITY *  CLOUDY    12  10  92 SE13G21   30.04F FOG     WCI  -3
SHELDON *      CLOUDY    12   9  85 SE21G26   30.07F FOG     WCI  -6
SIOUX CITY     CLOUDY    19   6  57 SE15      30.07F WCI   5
SPENCER        CLOUDY    12   7  80 SE22      30.13F HAZE    WCI  -7
STORM LAKE *   CLOUDY    12  10  92 SE18      30.11F WCI  -5
$$

IAZ055>058-069>071-079>083-090>094-140800-
   SOUTHWEST IOWA

CITY           SKY/WX    TMP DP  RH WIND       PRES   REMARKS
ATLANTIC *     CLOUDY    18   7  62 SE14      30.15F WCI   4
AUDUBON *      CLOUDY    16   9  73 SE10G16   30.15S WCI   3
CLARINDA *     CLOUDY    21   3  45 SE7G18    30.18F WCI  13
COUNCIL BLFS * CLOUDY    18   5  57 SE18      30.11F WCI   2
CRESTON *      CLOUDY    16   7  67 SE20      30.17F WCI  -1
HARLAN  *      CLOUDY    18   7  62 SE12G17   30.17F WCI   5
LAMONI         CLOUDY    17   6  62 SE13G21   30.19F WCI   4
RED OAK *      CLOUDY    19   3  49 SE14      30.15F WCI   6
SHENANDOAH *   CLOUDY    21   3  45 SE12G17   30.15F WCI   9
$$

IAZ047>049-059>061-072>074-084-140800-
   CENTRAL IOWA

CITY           SKY/WX    TMP DP  RH WIND       PRES   REMARKS
AMES           CLOUDY    14  10  84 SE15G22   30.23F WCI  -1
ANKENY *       CLOUDY    14  10  85 SE12G18   30.24F WCI   0
BOONE *        CLOUDY    14  10  85 SE20G28   30.18F WCI  -3
CHARITON *     CLOUDY    16   9  73 SE16      30.22F WCI   0
DES MOINES     FLURRIES  15   8  73 SE14G21   30.23F WCI   0
GRINNELL*      FLURRIES  14  12  92 SE15      30.27F WCI  -1
KNOXVILLE *    CLOUDY    14   9  79 SE14      30.23F WCI  -1
MARSHALLTOWN   FLURRIES  14  10  84 SE15      30.27F WCI  -1
NEWTON *       FLURRIES  14  12  92 SE15      30.27F WCI  -1
PELLA *        CLOUDY    16  12  86 SE13G18   30.28F WCI   2
$$

IAZ004>006-015-016-023>025-035-036-140800-
   NORTH CENTRAL IOWA

CITY           SKY/WX    TMP DP  RH WIND       PRES   REMARKS
ALGONA *       CLOUDY    12  10  92 SE17G24   30.17F FOG     WCI  -5
CLARION *      LGT SNOW  12   9  85 SE18G25   30.20F WCI  -5
ESTHERVILLE    LGT SNOW  11   8  88 SE23      30.15F FOG     WCI  -9
FORT DODGE *   CLOUDY    12   7  79 SE14G23   30.19F WCI  -3
MASON CITY     LGT SNOW   9   5  84 SE17      30.23F FOG     WCI  -9
FOREST CITY *  FLURRIES  10   7  85 SE15      30.21F WCI  -6
WEBSTER CITY * CLOUDY    14  10  85 SE21G29   30.18F FOG     WCI  -4
IOWA FALLS *   LGT SNOW  14  12  92 SE15      30.24F WCI  -1
$$

IAZ007>011-017>019-026>030-037>042-050>054-066-140800-
   NORTHEAST IOWA

CITY           SKY/WX    TMP DP  RH WIND       PRES   REMARKS
CEDAR RAPIDS   CLOUDY    16   2  54 SE12      30.32F WCI   3
CHARLES CITY * CLOUDY    10   3  72 SE17      30.26F WCI  -7
CLINTON *      CLOUDY    15   3  59 SE12      30.40F WCI   2
DUBUQUE        CLOUDY    11   0  61 SE10      30.35F WCI  -3
MONTICELLO *   CLOUDY    14   3  62 SE8       30.36F WCI   3
OELWEIN *      LGT SNOW  12   5  73 SE13      30.31F WCI  -3
WATERLOO       CLOUDY    14   4  64 SE9       30.30F WCI   2
$$

IAZ064-065-067-068-078-140800-
   EAST CENTRAL IOWA

CITY           SKY/WX    TMP DP  RH WIND       PRES   REMARKS
DAVENPORT      CLOUDY    17   0  47 SE9       30.39F WCI   6
IOWA CITY      CLOUDY    17   6  62 SE13      30.38F WCI   4
MT. PLEASANT * LGT SNOW  18  16  93 SE9       30.35F WCI   6
MUSCATINE *    LGT SNOW  18  12  79 S12       30.39F WCI   5
QUAD CITIES    CLOUDY    18   1  47 SE9       30.39F WCI   7
$$

IAZ062-063-075>077-085>089-095>099-140800-
   SOUTHEAST IOWA

CITY           SKY/WX    TMP DP  RH WIND       PRES   REMARKS
BURLINGTON     LGT SNOW  16  13  88 SE8       30.36F FOG     WCI   5
FAIRFIELD *    FLURRIES  16  12  86 SE10      30.32F WCI   3
FORT MADISON * LGT SNOW  16  12  86 SE6       30.36F WCI   7
KEOKUK *       LGT SNOW  18  14  86 E10       30.35F WCI   6
OSKALOOSA *    CLOUDY    16  12  86 SE13      30.29F WCI   2
CENTERVILLE *  CLOUDY    16  10  79 E14       30.25F WCI   1
OTTUMWA        CLOUDY    15  12  88 SE15      30.29F WCI   0
WASHINGTON *   LGT SNOW  16  14  93 SE10      30.35F WCI   3
$$

ABBREVIATIONS USED IN REMARKS
   TC - TEMPERATURES IN CELSIUS
  WCI - WIND CHILL INDEX
   HX - HEAT INDEX
  VSB - VISIBILITY
$$




USA.gov is the U.S. government's official web portal to all federal, state and local government web resources and services.